Weather reports worldwide

Advertisment
Cardiff, Bute Park, United Kingdom (99160): temperature & dewpoint: 15.02.2018 17:00:00 - 21.02.2018 17:00:00 (GMT)Cardiff, Bute Park, United Kingdom (99160): temperature -20cm & temperature -100cm: 15.02.2018 17:00:00 - 21.02.2018 17:00:00 (GMT)Cardiff, Bute Park, United Kingdom (99160): precipitation: 15.02.2018 17:00:00 - 21.02.2018 17:00:00 (GMT)
Date & Time tt [°C] td [°C] tt -20cm [°C] tt -100cm [°C] rr [mm]
21.02.2018 17:00:00 7,6 0,9 - - 0,0
21.02.2018 16:00:00 7,6 1,4 - - 0,0
21.02.2018 15:00:00 7,9 1,7 - - 0,0
21.02.2018 14:00:00 7,9 2,1 - - 0,0
21.02.2018 13:00:00 8,0 2,5 - - 0,0
21.02.2018 12:00:00 8,0 3,4 - - 0,0
21.02.2018 11:00:00 7,7 3,5 - - 0,0
21.02.2018 10:00:00 6,8 3,5 - - 0,0
21.02.2018 09:00:00 5,9 3,2 6,4 6,2 0,0
21.02.2018 08:00:00 6,4 3,6 - - 0,0
21.02.2018 07:00:00 6,3 3,3 - - 0,0
21.02.2018 06:00:00 6,2 3,4 - - 0,0
21.02.2018 05:00:00 6,5 2,7 - - 0,0
21.02.2018 04:00:00 5,6 2,1 - - 0,0
21.02.2018 03:00:00 5,9 1,5 - - 0,0
21.02.2018 02:00:00 3,7 1,1 - - 0,0
21.02.2018 01:00:00 4,4 1,2 - - 0,0
21.02.2018 00:00:00 6,0 1,5 - - 0,0
20.02.2018 23:00:00 5,4 1,5 - - 0,0
20.02.2018 22:00:00 6,1 1,9 - - 0,0
20.02.2018 21:00:00 6,4 1,9 - - 0,0
20.02.2018 20:00:00 6,5 1,7 - - 0,0
20.02.2018 19:00:00 6,2 1,1 - - 0,0
20.02.2018 18:00:00 8,3 1,2 - - 0,0
20.02.2018 17:00:00 9,6 1,2 - - 0,0
20.02.2018 16:00:00 10,4 0,3 - - 0,0
20.02.2018 15:00:00 11,0 0,7 - - 0,0
20.02.2018 14:00:00 11,0 0,4 - - 0,0
20.02.2018 13:00:00 10,4 0,5 - - 0,0
20.02.2018 12:00:00 9,9 0,7 - - 0,0
20.02.2018 11:00:00 8,6 1,7 - - 0,0
20.02.2018 10:00:00 8,8 3,3 - - 0,0
20.02.2018 09:00:00 7,2 3,0 6,7 6,2 0,0
20.02.2018 08:00:00 6,5 2,2 - - 0,0
20.02.2018 07:00:00 6,9 2,9 - - 0,0
20.02.2018 06:00:00 7,8 5,9 - - 0,0
20.02.2018 05:00:00 6,9 5,5 - - 0,0
20.02.2018 04:00:00 8,0 6,8 - - 0,0
20.02.2018 03:00:00 7,4 6,7 - - 0,0
20.02.2018 02:00:00 7,4 6,5 - - 0,0
20.02.2018 01:00:00 6,7 5,2 - - 0,0
20.02.2018 00:00:00 8,5 6,7 - - 0,0
19.02.2018 23:00:00 9,2 6,7 - - 0,0
19.02.2018 22:00:00 10,1 7,2 - - 0,0
19.02.2018 21:00:00 9,9 7,6 - - 0,0
19.02.2018 20:00:00 10,0 7,7 - - 0,0
19.02.2018 19:00:00 10,0 8,1 - - 0,0
19.02.2018 18:00:00 10,5 7,7 - - 0,0
19.02.2018 17:00:00 12,2 8,4 - - 0,0
19.02.2018 16:00:00 12,6 8,8 - - 0,0
19.02.2018 15:00:00 12,5 9,1 - - 0,0
19.02.2018 14:00:00 12,4 8,9 - - 0,0
19.02.2018 13:00:00 13,8 9,4 - - 0,0
19.02.2018 12:00:00 11,9 11,1 - - 0,0
19.02.2018 11:00:00 9,4 9,4 - - 0,0
19.02.2018 10:00:00 8,4 8,4 - - 0,0
19.02.2018 09:00:00 8,1 8,0 6,0 6,0 0,0
19.02.2018 08:00:00 8,0 8,0 - - 0,0
19.02.2018 07:00:00 7,8 7,7 - - 0,0
19.02.2018 06:00:00 7,8 7,8 - - 0,0
19.02.2018 05:00:00 7,7 7,7 - - 0,0
19.02.2018 04:00:00 7,7 7,7 - - 0,0
19.02.2018 03:00:00 7,7 7,7 - - 0,0
19.02.2018 02:00:00 7,6 7,5 - - 0,0
19.02.2018 01:00:00 7,6 7,4 - - 0,2
19.02.2018 00:00:00 7,4 7,1 - - 0,2
18.02.2018 23:00:00 7,4 7,0 - - 0,0
18.02.2018 22:00:00 7,6 7,3 - - 0,0
18.02.2018 21:00:00 7,8 7,3 - - 0,2
18.02.2018 20:00:00 8,0 7,5 - - 0,2
18.02.2018 19:00:00 8,0 7,3 - - 0,2
18.02.2018 18:00:00 8,3 7,1 - - 0,0
18.02.2018 17:00:00 8,4 7,1 - - 0,0
18.02.2018 16:00:00 8,5 7,1 - - 0,0
18.02.2018 15:00:00 8,8 7,2 - - 0,0
18.02.2018 14:00:00 8,6 7,1 - - 0,0
18.02.2018 13:00:00 8,3 7,1 - - 0,0
18.02.2018 12:00:00 8,0 6,9 - - 0,0
18.02.2018 11:00:00 7,5 6,5 - - 0,0
18.02.2018 10:00:00 7,2 6,1 - - 0,0
18.02.2018 09:00:00 6,8 5,8 5,5 6,0 0,0
18.02.2018 08:00:00 6,4 5,5 - - 0,0
18.02.2018 07:00:00 6,7 5,7 - - 0,0
18.02.2018 06:00:00 6,4 5,8 - - 0,4
18.02.2018 05:00:00 6,4 5,9 - - 0,4
18.02.2018 04:00:00 6,6 5,7 - - 0,0
18.02.2018 03:00:00 6,7 5,3 - - 0,0
18.02.2018 02:00:00 6,9 5,6 - - 0,0
18.02.2018 01:00:00 6,4 5,5 - - 0,0
18.02.2018 00:00:00 6,1 5,5 - - 0,0
17.02.2018 23:00:00 5,2 4,3 - - 0,0
17.02.2018 22:00:00 6,0 4,3 - - 0,0
17.02.2018 21:00:00 5,7 4,1 - - 0,0
17.02.2018 20:00:00 6,4 4,7 - - 0,0
17.02.2018 19:00:00 5,4 4,3 - - 0,0
17.02.2018 18:00:00 6,2 3,2 - - 0,0
17.02.2018 17:00:00 8,3 4,4 - - 0,0
17.02.2018 16:00:00 8,5 3,8 - - 0,0
17.02.2018 15:00:00 10,5 4,7 - - 0,0
17.02.2018 14:00:00 9,9 5,2 - - 0,0
17.02.2018 13:00:00 9,8 5,0 - - 0,0
17.02.2018 12:00:00 8,2 5,3 - - 0,0
17.02.2018 11:00:00 6,5 5,4 - - 0,2
17.02.2018 10:00:00 5,4 5,0 - - 0,2
17.02.2018 09:00:00 4,6 4,2 5,0 2,4 0,0
17.02.2018 08:00:00 4,3 3,9 - - 0,0
17.02.2018 07:00:00 3,7 3,6 - - 0,0
17.02.2018 06:00:00 2,8 2,7 - - 0,0
17.02.2018 05:00:00 2,0 1,6 - - 0,0
17.02.2018 04:00:00 1,9 0,9 - - 0,0
17.02.2018 03:00:00 3,9 2,4 - - 0,0
17.02.2018 02:00:00 4,6 3,5 - - 0,0
17.02.2018 01:00:00 4,4 3,0 - - 0,0
17.02.2018 00:00:00 5,3 3,5 - - 0,0
16.02.2018 23:00:00 5,3 3,2 - - 0,0
16.02.2018 22:00:00 5,3 3,0 - - 0,0
16.02.2018 21:00:00 6,0 3,3 - - 0,0
16.02.2018 20:00:00 6,3 2,8 - - 0,0
16.02.2018 19:00:00 6,7 3,2 - - 0,0
16.02.2018 18:00:00 7,2 2,9 - - 0,0
16.02.2018 17:00:00 7,5 2,6 - - 0,0
16.02.2018 16:00:00 8,6 2,1 - - 0,0
16.02.2018 15:00:00 9,6 1,7 - - 0,0
16.02.2018 14:00:00 9,8 2,2 - - 0,0
16.02.2018 13:00:00 8,7 3,9 - - 0,0
16.02.2018 12:00:00 8,0 4,3 - - 0,0
16.02.2018 11:00:00 7,7 4,6 - - 0,0
16.02.2018 10:00:00 5,2 5,0 - - 0,2
16.02.2018 09:00:00 0,9 0,9 5,0 6,0 0,0
16.02.2018 08:00:00 -2,0 -2,1 - - 0,0
16.02.2018 07:00:00 -1,8 -1,9 - - 0,0
16.02.2018 06:00:00 -1,6 -1,7 - - 0,0
16.02.2018 05:00:00 -1,4 -1,5 - - 0,0
16.02.2018 04:00:00 -1,1 -1,3 - - 0,0
16.02.2018 03:00:00 -0,6 -0,8 - - 0,0
16.02.2018 02:00:00 -0,3 -0,6 - - 0,0
16.02.2018 01:00:00 0,6 0,3 - - 0,0
16.02.2018 00:00:00 1,2 0,9 - - 0,0
15.02.2018 23:00:00 2,1 1,7 - - 0,0
15.02.2018 22:00:00 3,0 2,2 - - 0,0
15.02.2018 21:00:00 3,6 2,3 - - 0,8
15.02.2018 20:00:00 4,9 2,1 - - 0,0
15.02.2018 19:00:00 5,3 2,1 - - 0,0
15.02.2018 18:00:00 5,7 1,6 - - 0,0
15.02.2018 17:00:00 6,7 1,8 - - 0,0

tt = temperature
td = dewpoint
tt -20cm = temperature -20cm
tt -100cm = temperature -100cm
rr = precipitation

Next stations